Location: Newark
(47.3150°N, 5.1150°E)
Time: 00:56:32
(UTC+00:00)

ISS - Pass Details

Date: 31 October 2019
Orbit: 412 x 421 km, 51.6° (Epoch: 16 November)

Event Time Altitude Azimuth Distance (km) Brightness Sun altitude
Exits shadow 03:58:21 37° 71° (ENE) 677 -2.3 -24.6°
Drops below altitude 10° 04:00:31 10° 67° (ENE) 1,509 0.0 -24.2°
Sets 04:02:37 0° 66° (ENE) 2,375 1.3 -23.8°
